Theta_e
337 341 341 340 341 336 339 344 339 340 342 343 339 339 339 343 343 342 339 337 339 339 339 338 338 339 341 341 341 340 340 339 340 339 339 339 337 336 336 335 335 335 335
338 339 338 337 340 340 339 342 341 337 341 343 342 340 343 342 343 342 340 339 338 338 338 338 338 338 339 339 338 338 337 333 335 335 336 337 336 336 334 336 336 338 337
338 338 339 339 338 339 338 340 340 339 338 341 342 342 342 343 342 341 340 339 339 338 340 339 338 337 337 337 336 336 333 326 325 328 331 337 334 336 336 336 337 338 338
336 338 339 339 337 337 337 339 340 340 338 338 339 340 342 342 343 342 340 339 338 337 338 339 339 339 337 336 335 336 330 327 329 327 333 334 336 337 337 337 337 337 335
328 337 337 337 337 336 337 337 339 339 338 338 337 336 338 341 342 341 340 338 336 334 335 336 336 337 333 331 336 336 334 334 334 335 333 335 338 338 337 335 334 332 333
317 319 325 334 338 337 335 336 336 339 339 337 337 337 337 339 342 339 339 338 337 335 332 333 333 334 328 333 335 334 334 334 334 337 337 337 337 337 335 333 332 332 332
317 315 316 332 338 338 337 334 336 336 338 337 338 337 339 337 339 339 339 337 337 336 334 332 326 331 329 333 333 332 331 334 334 336 336 336 336 334 333 331 330 329 329
316 315 315 315 319 337 337 336 334 335 336 336 336 337 337 337 336 340 338 338 336 335 336 335 327 327 329 332 330 331 330 333 332 332 333 332 332 332 331 330 329 329 327
315 314 315 314 313 315 337 338 337 336 334 336 336 335 336 336 336 340 338 338 335 335 335 333 327 326 329 333 329 331 332 333 331 331 330 329 330 330 330 329 330 328 327
315 315 315 315 314 313 332 338 338 337 337 335 335 335 336 337 335 338 338 337 335 336 334 331 327 327 331 332 328 329 332 331 330 330 329 330 330 329 329 330 331 332 331
315 315 316 315 315 314 314 331 337 338 337 337 335 335 336 336 334 337 339 337 336 334 331 325 326 327 330 331 329 331 332 330 330 329 328 327 329 328 331 332 331 331 331
314 314 315 316 316 315 314 315 332 338 337 337 336 336 336 335 336 337 337 337 335 331 326 323 322 327 329 331 329 332 331 329 329 327 326 325 326 327 332 330 329 331 331
313 314 315 316 317 316 315 315 319 334 337 336 337 336 336 336 336 337 335 335 332 329 326 324 326 328 333 328 331 331 330 328 327 325 324 324 325 329 331 329 327 327 328
314 314 314 315 318 319 317 316 316 323 333 335 336 335 336 336 337 337 334 333 331 329 327 322 326 330 330 329 330 330 330 327 325 323 323 324 324 330 331 329 328 328 328
314 314 314 314 317 320 319 317 318 319 328 331 336 334 335 336 337 336 334 333 329 328 326 323 328 328 327 329 330 330 327 325 323 323 322 322 324 325 330 327 327 326 326
314 315 314 315 316 321 320 319 319 324 327 330 331 334 334 334 334 335 333 331 328 327 325 327 327 327 326 329 330 329 327 324 322 322 322 322 327 329 327 323 327 324 323
314 314 315 316 318 321 320 319 317 321 326 327 328 328 329 325 327 328 330 329 326 326 327 326 325 325 325 329 328 328 325 323 321 321 320 322 326 325 323 326 325 322 320
317 316 315 316 318 321 320 319 318 316 318 323 323 323 322 323 322 324 326 327 325 327 327 325 325 324 325 327 325 324 323 321 321 320 319 320 322 321 321 320 320 322 319
319 319 319 317 318 320 320 319 318 316 316 315 315 315 314 314 317 318 325 324 324 328 325 324 324 323 324 324 323 322 322 320 320 319 318 319 319 319 318 318 318 318 318
319 319 318 318 318 320 320 318 316 316 315 315 314 314 314 315 316 317 321 324 324 325 324 324 324 324 323 321 320 320 320 319 319 318 318 318 317 318 318 318 317 317 317
316 318 317 318 318 319 318 316 314 312 313 314 314 315 316 316 316 318 322 324 323 324 323 324 324 323 317 318 317 315 317 318 318 318 317 317 318 318 318 318 317 317 317
316 317 317 318 318 318 317 316 314 313 312 315 313 314 316 316 317 319 323 323 322 325 322 322 321 315 314 317 317 313 311 313 316 317 318 318 318 318 318 317 317 316 316
315 316 316 317 317 316 315 315 313 312 312 312 313 315 316 316 316 318 322 322 323 324 321 319 319 315 314 315 316 315 309 311 310 313 316 317 317 317 316 315 315 314 314
316 317 316 316 316 316 315 315 313 312 312 312 313 314 315 316 316 318 321 322 323 323 321 318 316 315 314 311 314 314 314 309 307 308 309 313 313 312 311 310 310 309 308
316 318 317 316 316 314 314 314 313 312 313 312 313 313 315 316 316 317 319 321 323 321 319 317 315 314 313 311 314 310 309 308 309 307 307 306 308 310 309 308 305 306 306
315 317 317 316 315 314 314 314 314 313 312 312 312 313 313 315 315 316 318 320 321 321 316 315 315 314 313 313 314 311 309 309 308 308 305 306 306 307 308 308 308 307 308
Wind_Speed
6 15 12 12 11 11 13 13 12 13 13 13 14 15 17 18 18 18 18 17 19 18 17 16 16 14 15 15 15 15 16 17 17 16 15 16 19 17 16 17 18 17 15
8 14 12 11 13 12 12 14 13 13 15 15 13 14 15 16 16 17 18 18 17 18 17 16 15 15 15 15 15 16 15 16 16 15 15 17 17 16 16 17 17 15 15
9 13 13 11 11 13 12 14 16 15 15 16 16 15 15 16 16 17 16 17 18 17 17 17 16 15 15 15 16 16 16 16 15 15 15 15 14 15 15 18 19 17 17
8 10 11 11 9 12 13 14 16 18 17 17 16 17 17 17 17 17 17 18 19 18 17 16 16 16 16 17 17 17 16 15 14 13 14 14 12 15 19 19 18 15 15
12 8 7 11 12 12 14 15 16 18 18 18 17 17 17 18 17 17 18 20 20 19 19 15 15 16 17 18 17 16 17 13 13 11 14 12 19 20 19 17 14 14 13
6 5 2 10 15 14 16 16 17 18 19 19 18 17 17 18 18 18 21 21 22 20 17 15 16 16 17 17 16 16 13 13 14 16 19 19 20 18 16 13 13 12 11
4 2 3 2 12 17 15 18 17 19 20 20 20 18 18 19 20 20 21 22 22 21 18 15 15 17 17 15 14 13 13 15 18 18 19 19 18 15 13 12 11 11 10
2 3 6 5 3 13 19 19 19 20 21 22 22 21 20 21 21 20 23 22 24 20 17 15 14 17 17 15 14 11 15 20 20 18 17 15 13 12 10 11 11 11 11
6 6 6 8 9 11 16 21 21 22 22 23 23 22 21 21 21 21 24 26 24 22 18 15 15 16 16 15 15 15 20 20 19 17 16 13 13 11 10 11 12 12 13
9 10 9 9 10 9 13 19 22 23 24 25 24 24 22 23 23 24 27 26 24 21 19 16 16 18 17 16 16 17 20 19 18 18 17 13 12 10 9 12 11 11 12
12 13 13 11 10 10 12 15 18 24 25 25 26 25 24 24 24 26 27 27 24 22 20 18 18 19 18 18 17 19 22 21 20 18 15 10 11 12 12 16 15 14 16
14 16 17 16 13 11 12 15 17 19 24 26 27 27 26 26 27 30 27 26 24 22 20 20 21 20 21 20 20 23 23 22 19 16 15 10 14 16 14 17 16 18 17
15 16 17 20 18 15 13 14 15 18 21 24 28 29 29 29 31 32 28 25 24 23 23 23 24 24 22 24 27 24 23 21 19 16 16 17 15 16 18 17 17 15 16
11 16 19 20 22 19 15 14 15 16 19 20 25 30 30 33 36 35 32 29 28 27 26 27 29 27 25 27 26 25 24 22 21 19 18 18 17 16 17 17 17 16 15
14 16 17 19 24 21 18 14 14 16 16 19 19 26 32 34 38 37 35 31 32 30 28 31 30 28 27 29 26 25 25 23 22 18 16 16 17 18 18 16 14 15 13
14 15 17 19 22 22 18 15 14 13 13 14 17 24 28 32 33 40 38 33 34 33 32 32 32 29 30 30 27 26 25 23 22 19 22 21 15 19 18 15 16 13 13
14 15 16 16 18 23 20 16 15 15 13 14 15 19 23 15 17 26 35 37 38 37 35 33 30 30 30 29 27 27 26 25 23 22 21 21 18 18 17 17 16 15 14
13 14 15 15 18 23 22 19 17 18 19 20 20 20 19 16 11 12 23 36 40 40 38 36 34 32 35 32 28 27 28 28 25 24 24 23 17 17 16 16 15 14 14
13 13 15 18 22 25 23 19 18 19 21 23 24 25 26 27 29 22 23 25 40 42 39 38 35 36 36 32 29 29 30 28 27 25 24 22 18 17 17 16 15 14 14
14 15 15 18 23 23 21 18 18 19 21 22 23 24 24 23 23 25 27 32 29 36 38 37 38 35 35 33 27 30 31 27 27 26 24 22 20 20 20 19 17 15 15
14 14 13 13 18 21 20 18 17 17 22 20 22 21 20 21 24 30 31 38 41 29 39 42 41 38 29 34 28 20 23 25 24 25 24 23 22 20 20 20 19 18 16
14 13 10 12 15 20 20 20 17 11 14 19 20 22 24 24 26 28 35 38 44 33 29 42 40 30 24 35 22 15 3 5 16 22 24 24 22 21 20 19 19 19 18
13 12 10 11 14 16 18 21 19 18 17 17 22 21 23 23 26 33 36 36 44 37 31 37 44 34 28 29 38 14 3 3 8 14 21 22 22 22 21 20 20 19 18
14 12 12 11 15 16 19 24 24 22 20 22 23 27 22 21 24 34 40 36 34 41 32 31 40 37 37 29 29 23 18 16 4 3 11 21 22 22 22 21 21 20 19
11 10 12 13 16 16 16 24 27 24 21 21 24 25 22 24 19 29 37 43 37 36 33 30 36 37 38 31 31 23 21 17 12 5 3 8 19 24 23 21 21 21 19
11 9 11 14 21 19 17 18 27 22 21 22 24 26 27 28 25 17 35 42 41 37 28 35 38 39 37 32 32 32 25 10 8 6 3 4 13 18 23 22 22 22 20
Wind_Direction
220 180 183 186 180 185 179 177 172 163 154 154 151 152 150 147 146 145 145 140 136 133 133 131 130 131 122 120 121 120 117 121 120 120 120 127 117 113 114 113 115 112 109
187 183 181 182 190 183 191 183 180 182 166 159 165 158 154 155 151 148 146 143 141 138 138 138 136 134 132 130 126 124 124 129 129 125 115 117 115 114 119 113 107 110 103
155 180 187 197 205 194 193 193 184 186 182 177 169 165 163 160 160 158 154 151 148 146 140 141 141 140 135 133 129 125 123 124 128 127 121 126 119 119 122 121 110 105 101
119 177 196 207 218 211 203 200 197 191 189 187 178 171 168 169 167 163 161 159 155 152 148 142 145 143 143 137 132 126 124 122 125 137 135 132 132 135 119 108 101 99 105
111 135 198 220 224 222 212 210 205 203 196 191 192 187 179 176 177 175 172 166 164 161 160 157 155 148 142 140 135 132 129 114 117 134 148 133 127 117 106 104 104 106 99
110 118 167 231 223 226 225 222 214 210 205 199 195 196 198 187 188 185 180 172 168 166 165 157 164 157 148 146 145 150 147 134 124 120 134 126 111 109 104 103 102 105 106
119 45 48 30 228 226 229 226 229 218 212 208 206 206 205 204 199 193 193 183 177 174 169 160 159 163 156 153 152 159 168 159 138 128 122 116 111 109 106 105 104 103 104
220 292 303 294 294 244 234 235 231 229 221 215 217 215 218 215 208 205 198 194 182 175 172 165 167 167 166 161 154 155 156 165 148 142 130 123 118 111 110 109 105 103 104
263 279 295 298 290 252 238 235 239 236 232 226 222 223 218 216 214 208 198 187 182 177 180 177 176 174 171 168 161 156 152 159 156 148 141 133 120 114 111 111 110 109 110
251 266 264 285 301 278 246 237 236 242 238 232 228 225 224 221 217 210 193 190 188 186 189 186 183 180 176 176 170 165 164 162 159 151 145 137 129 125 127 126 123 119 128
258 258 260 263 272 286 263 249 242 234 240 239 234 230 222 223 220 208 196 193 196 196 197 193 182 181 183 179 172 169 170 166 161 155 150 130 128 130 138 137 118 113 119
278 271 261 257 253 263 272 259 249 242 236 237 235 230 220 221 216 204 201 206 201 201 198 190 178 180 188 182 175 173 174 164 162 155 145 148 135 144 138 132 125 109 111
284 285 275 260 250 250 262 263 258 249 243 239 236 232 223 218 212 206 200 202 199 198 190 184 174 181 183 182 173 175 175 167 160 152 138 134 143 154 143 140 136 122 115
282 287 284 266 247 242 249 259 259 255 249 245 240 234 226 219 213 203 201 202 196 195 191 182 181 181 181 180 178 181 178 169 161 150 145 150 160 164 146 139 137 135 126
285 296 286 274 246 237 237 247 258 256 247 248 241 238 230 222 214 207 202 203 197 194 194 184 179 182 182 180 182 186 179 170 164 158 157 149 169 169 154 149 145 135 134
287 295 295 276 247 232 236 237 246 243 240 230 238 217 211 209 210 208 207 205 199 196 189 187 183 186 186 182 183 188 182 175 169 164 160 162 168 158 145 147 149 145 143
280 285 290 279 247 230 237 240 236 233 220 217 207 212 197 187 193 203 205 208 200 195 193 193 189 187 186 183 186 190 182 173 168 166 166 170 163 155 161 150 140 144 143
284 280 279 269 249 233 233 238 237 233 232 229 227 232 237 232 236 228 211 204 200 195 195 192 191 189 189 184 181 184 180 172 170 167 163 176 172 173 171 172 169 158 155
277 279 274 264 245 234 232 232 238 241 240 240 242 247 251 257 251 244 222 208 200 193 191 192 192 188 183 182 185 183 178 172 170 170 167 174 179 176 177 177 171 165 163
281 278 271 257 247 235 229 231 243 246 244 243 245 249 251 248 246 237 234 216 205 190 185 188 187 184 181 178 172 172 172 174 174 174 171 173 178 178 175 175 171 167 166
297 280 281 256 240 224 218 225 248 241 246 246 244 246 244 246 243 235 222 208 201 200 183 184 181 180 166 168 147 141 162 172 176 177 180 178 180 182 184 182 181 179 175
303 286 265 245 231 221 229 243 243 245 246 245 249 243 242 241 237 228 211 197 192 196 195 180 177 164 164 167 156 139 140 157 186 184 183 186 188 190 191 192 194 191 186
304 282 257 247 233 245 252 255 248 239 250 252 243 243 238 238 233 223 210 198 185 190 196 181 177 171 162 170 161 157 142 173 145 193 196 196 198 201 203 202 201 200 198
302 288 252 245 231 240 247 247 231 219 219 233 240 235 226 225 223 215 213 199 186 188 193 196 176 175 166 163 170 170 169 140 156 147 204 205 204 205 205 206 205 205 205
296 286 258 257 234 242 257 257 236 223 225 234 241 237 223 224 211 209 201 198 190 180 186 198 179 172 171 166 172 158 143 151 142 139 162 192 209 209 210 211 208 207 208
295 286 257 257 240 255 272 284 236 228 221 219 228 228 234 228 224 208 194 188 186 177 184 193 187 178 174 178 182 176 159 156 163 148 121 150 188 209 212 213 214 214 213